Time,TemperatureF,DewpointF,PressureIn,WindDirection,WindDirectionDegrees,WindSpeedMPH,WindSpeedGustMPH,Humidity,HourlyPrecipIn,Conditions,Clouds,dailyrainin,SoftwareType,DateUTC
2013-05-21 00:02:00,66.0,58.0,30.20,North,0,5.0,7.0,77,0.00,,,0.00,TxWx,2013-05-21 04:02:00,
2013-05-21 00:03:00,66.0,59.0,30.20,ENE,67,3.0,8.0,77,0.00,,,0.00,TxWx,2013-05-21 04:03:00,
2013-05-21 00:04:00,66.0,59.0,30.20,NNW,337,1.0,4.0,78,0.00,,,0.00,TxWx,2013-05-21 04:04:00,
2013-05-21 00:10:00,65.0,58.0,30.20,NE,45,5.0,5.0,79,0.00,,,0.00,TxWx,2013-05-21 04:10:00,
2013-05-21 00:11:00,65.0,58.0,30.20,North,0,1.0,5.0,79,0.00,,,0.00,TxWx,2013-05-21 04:11:00,
2013-05-21 00:12:00,66.0,59.0,30.20,SSE,157,2.0,5.0,79,0.00,,,0.00,TxWx,2013-05-21 04:12:00,
2013-05-21 00:18:00,66.0,59.0,30.19,NE,45,2.0,3.0,79,0.00,,,0.00,TxWx,2013-05-21 04:18:00,
2013-05-21 00:23:00,66.0,59.0,30.19,NNW,337,2.0,4.0,78,0.00,,,0.00,TxWx,2013-05-21 04:23:00,
2013-05-21 00:29:00,66.0,59.0,30.18,NE,45,3.0,3.0,79,0.00,,,0.00,TxWx,2013-05-21 04:29:00,
2013-05-21 00:34:00,66.0,59.0,30.18,East,90,2.0,3.0,79,0.00,,,0.00,TxWx,2013-05-21 04:34:00,
2013-05-21 00:39:00,66.0,59.0,30.17,East,90,1.0,3.0,79,0.00,,,0.00,TxWx,2013-05-21 04:39:00,
2013-05-21 00:45:00,66.0,59.0,30.17,NE,45,3.0,4.0,79,0.00,,,0.00,TxWx,2013-05-21 04:45:00,
2013-05-21 00:50:00,66.0,59.0,30.17,NE,45,1.0,2.0,79,0.00,,,0.00,TxWx,2013-05-21 04:50:00,
2013-05-21 00:56:00,66.0,59.0,30.17,NE,45,3.0,3.0,79,0.00,,,0.00,TxWx,2013-05-21 04:56:00,
2013-05-21 01:01:00,66.0,59.0,30.17,ESE,112,2.0,3.0,79,0.00,,,0.00,TxWx,2013-05-21 05:01:00,
2013-05-21 01:06:00,66.0,59.0,30.16,ESE,112,3.0,5.0,79,0.00,,,0.00,TxWx,2013-05-21 05:06:00,
2013-05-21 01:12:00,66.0,59.0,30.18,WSW,247,3.0,3.0,79,0.00,,,0.00,TxWx,2013-05-21 05:12:00,
2013-05-21 01:17:00,66.0,59.0,30.18,East,90,1.0,1.0,80,0.00,,,0.00,TxWx,2013-05-21 05:17:00,
2013-05-21 01:22:00,66.0,59.0,30.17,ESE,112,5.0,5.0,80,0.00,,,0.00,TxWx,2013-05-21 05:22:00,
2013-05-21 01:28:00,66.0,60.0,30.17,SE,135,4.0,5.0,80,0.00,,,0.00,TxWx,2013-05-21 05:28:00,
2013-05-21 01:33:00,66.0,60.0,30.16,SE,135,2.0,5.0,80,0.00,,,0.00,TxWx,2013-05-21 05:33:00,
2013-05-21 01:38:00,66.0,60.0,30.16,ESE,112,3.0,4.0,80,0.00,,,0.00,TxWx,2013-05-21 05:38:00,
2013-05-21 01:43:00,66.0,59.0,30.16,ESE,112,1.0,3.0,80,0.00,,,0.00,TxWx,2013-05-21 05:43:00,
2013-05-21 01:49:00,66.0,59.0,30.15,SE,135,1.0,5.0,79,0.00,,,0.00,TxWx,2013-05-21 05:49:00,
2013-05-21 01:54:00,66.0,59.0,30.15,ESE,112,5.0,5.0,79,0.00,,,0.00,TxWx,2013-05-21 05:54:00,
2013-05-21 02:00:00,66.0,59.0,30.15,ESE,112,2.0,5.0,79,0.00,,,0.00,TxWx,2013-05-21 06:00:00,
2013-05-21 02:05:00,66.0,59.0,30.15,SE,135,5.0,6.0,79,0.00,,,0.00,TxWx,2013-05-21 06:05:00,
2013-05-21 02:10:00,67.0,60.0,30.15,SE,135,3.0,4.0,79,0.00,,,0.00,TxWx,2013-05-21 06:10:00,
2013-05-21 02:16:00,67.0,60.0,30.15,SSE,157,3.0,3.0,79,0.00,,,0.00,TxWx,2013-05-21 06:16:00,
2013-05-21 02:21:00,67.0,60.0,30.15,SSE,157,3.0,3.0,79,0.00,,,0.00,TxWx,2013-05-21 06:21:00,
2013-05-21 02:27:00,66.0,59.0,30.14,SSE,157,3.0,6.0,79,0.00,,,0.00,TxWx,2013-05-21 06:27:00,
2013-05-21 02:32:00,66.0,59.0,30.15,East,90,4.0,4.0,79,0.00,,,0.00,TxWx,2013-05-21 06:32:00,
2013-05-21 02:38:00,66.0,59.0,30.15,SE,135,1.0,2.0,79,0.00,,,0.00,TxWx,2013-05-21 06:38:00,
2013-05-21 02:43:00,67.0,60.0,30.15,SSE,157,1.0,3.0,79,0.00,,,0.00,TxWx,2013-05-21 06:43:00,
2013-05-21 02:48:00,67.0,60.0,30.16,SE,135,1.0,3.0,79,0.00,,,0.00,TxWx,2013-05-21 06:48:00,
2013-05-21 02:54:00,67.0,60.0,30.15,ESE,112,3.0,3.0,79,0.00,,,0.00,TxWx,2013-05-21 06:54:00,
2013-05-21 02:59:00,67.0,60.0,30.14,SE,135,3.0,4.0,79,0.00,,,0.00,TxWx,2013-05-21 06:59:00,
2013-05-21 03:04:00,67.0,60.0,30.15,SW,225,2.0,3.0,79,0.00,,,0.00,TxWx,2013-05-21 07:04:00,
2013-05-21 03:09:00,67.0,60.0,30.15,SE,135,3.0,4.0,79,0.00,,,0.00,TxWx,2013-05-21 07:09:00,
2013-05-21 03:15:00,67.0,60.0,30.15,ENE,67,3.0,3.0,79,0.00,,,0.00,TxWx,2013-05-21 07:15:00,
2013-05-21 03:20:00,67.0,60.0,30.15,SE,135,1.0,4.0,78,0.00,,,0.00,TxWx,2013-05-21 07:20:00,
2013-05-21 03:25:00,67.0,60.0,30.14,South,180,2.0,4.0,78,0.00,,,0.00,TxWx,2013-05-21 07:25:00,
2013-05-21 03:31:00,67.0,60.0,30.14,ESE,112,3.0,5.0,77,0.00,,,0.00,TxWx,2013-05-21 07:31:00,
2013-05-21 03:36:00,67.0,59.0,30.14,WSW,247,2.0,5.0,77,0.00,,,0.00,TxWx,2013-05-21 07:36:00,
2013-05-21 03:42:00,67.0,59.0,30.13,ESE,112,5.0,6.0,76,0.00,,,0.00,TxWx,2013-05-21 07:42:00,
2013-05-21 03:47:00,68.0,60.0,30.14,SW,225,6.0,7.0,76,0.00,,,0.00,TxWx,2013-05-21 07:47:00,
2013-05-21 03:53:00,68.0,60.0,30.13,SE,135,3.0,10.0,75,0.00,,,0.00,TxWx,2013-05-21 07:53:00,
2013-05-21 03:58:00,68.0,60.0,30.13,SW,225,4.0,5.0,75,0.00,,,0.00,TxWx,2013-05-21 07:58:00,
2013-05-21 04:03:00,68.0,59.0,30.13,SSW,202,1.0,4.0,74,0.00,,,0.00,TxWx,2013-05-21 08:03:00,
2013-05-21 04:08:00,68.0,59.0,30.13,SSW,202,1.0,3.0,74,0.00,,,0.00,TxWx,2013-05-21 08:08:00,
2013-05-21 04:14:00,68.0,59.0,30.13,SSW,202,3.0,4.0,73,0.00,,,0.00,TxWx,2013-05-21 08:14:00,
2013-05-21 04:19:00,68.0,59.0,30.13,SW,225,3.0,5.0,73,0.00,,,0.00,TxWx,2013-05-21 08:19:00,
2013-05-21 04:24:00,68.0,59.0,30.13,SSW,202,5.0,6.0,72,0.00,,,0.00,TxWx,2013-05-21 08:24:00,
2013-05-21 04:30:00,68.0,58.0,30.13,South,180,3.0,6.0,71,0.00,,,0.00,TxWx,2013-05-21 08:30:00,
2013-05-21 04:35:00,68.0,58.0,30.13,SSW,202,6.0,6.0,71,0.00,,,0.00,TxWx,2013-05-21 08:35:00,
2013-05-21 04:41:00,68.0,58.0,30.13,SSW,202,2.0,6.0,71,0.00,,,0.00,TxWx,2013-05-21 08:41:00,
2013-05-21 04:46:00,68.0,58.0,30.13,South,180,7.0,11.0,70,0.00,,,0.00,TxWx,2013-05-21 08:46:00,
2013-05-21 04:51:00,68.0,58.0,30.12,ESE,112,3.0,5.0,70,0.00,,,0.00,TxWx,2013-05-21 08:51:00,
2013-05-21 04:57:00,68.0,58.0,30.13,SW,225,3.0,3.0,70,0.00,,,0.00,TxWx,2013-05-21 08:57:00,
2013-05-21 05:02:00,68.0,58.0,30.13,SSW,202,4.0,6.0,70,0.00,,,0.00,TxWx,2013-05-21 09:02:00,
2013-05-21 05:07:00,68.0,58.0,30.13,SSE,157,1.0,3.0,70,0.00,,,0.00,TxWx,2013-05-21 09:07:00,
2013-05-21 05:13:00,68.0,57.0,30.13,South,180,4.0,4.0,69,0.00,,,0.00,TxWx,2013-05-21 09:13:00,
2013-05-21 05:18:00,68.0,57.0,30.13,SSE,157,3.0,5.0,69,0.00,,,0.00,TxWx,2013-05-21 09:18:00,
2013-05-21 05:23:00,68.0,57.0,30.13,WSW,247,2.0,3.0,69,0.00,,,0.00,TxWx,2013-05-21 09:23:00,
2013-05-21 05:29:00,68.0,57.0,30.13,South,180,2.0,3.0,69,0.00,,,0.00,TxWx,2013-05-21 09:29:00,
2013-05-21 05:34:00,68.0,57.0,30.13,SE,135,3.0,3.0,68,0.00,,,0.00,TxWx,2013-05-21 09:34:00,
2013-05-21 05:40:00,68.0,57.0,30.13,SSW,202,3.0,4.0,69,0.00,,,0.00,TxWx,2013-05-21 09:40:00,
2013-05-21 05:46:00,68.0,57.0,30.13,SSW,202,3.0,3.0,69,0.00,,,0.00,TxWx,2013-05-21 09:46:00,
2013-05-21 05:51:00,68.0,57.0,30.14,SW,225,3.0,5.0,69,0.00,,,0.00,TxWx,2013-05-21 09:51:00,
2013-05-21 05:56:00,68.0,58.0,30.14,West,270,1.0,5.0,70,0.00,,,0.00,TxWx,2013-05-21 09:56:00,
2013-05-21 06:02:00,68.0,58.0,30.14,SSW,202,3.0,4.0,70,0.00,,,0.00,TxWx,2013-05-21 10:02:00,
2013-05-21 06:07:00,68.0,58.0,30.14,South,180,1.0,4.0,71,0.00,,,0.00,TxWx,2013-05-21 10:07:00,
2013-05-21 06:12:00,68.0,58.0,30.15,SW,225,2.0,3.0,72,0.00,,,0.00,TxWx,2013-05-21 10:12:00,
2013-05-21 06:17:00,68.0,59.0,30.15,South,180,4.0,4.0,73,0.00,,,0.00,TxWx,2013-05-21 10:17:00,
2013-05-21 06:22:00,68.0,59.0,30.15,SSW,202,3.0,4.0,73,0.00,,,0.00,TxWx,2013-05-21 10:22:00,
2013-05-21 06:28:00,69.0,61.0,30.15,South,180,5.0,8.0,75,0.00,,,0.00,TxWx,2013-05-21 10:28:00,
2013-05-21 06:33:00,69.0,61.0,30.14,SSW,202,3.0,5.0,77,0.00,,,0.00,TxWx,2013-05-21 10:33:00,
2013-05-21 06:39:00,70.0,63.0,30.14,SSW,202,3.0,10.0,78,0.00,,,0.00,TxWx,2013-05-21 10:39:00,
2013-05-21 06:44:00,71.0,64.0,30.14,SW,225,5.0,11.0,78,0.00,,,0.00,TxWx,2013-05-21 10:44:00,
2013-05-21 06:49:00,71.0,64.0,30.14,SSW,202,5.0,7.0,78,0.00,,,0.00,TxWx,2013-05-21 10:49:00,
2013-05-21 06:55:00,71.0,64.0,30.14,SW,225,5.0,9.0,78,0.00,,,0.00,TxWx,2013-05-21 10:55:00,
2013-05-21 07:01:00,72.0,65.0,30.15,SW,225,3.0,8.0,78,0.00,,,0.00,TxWx,2013-05-21 11:01:00,
2013-05-21 07:06:00,72.0,65.0,30.15,SW,225,6.0,9.0,78,0.00,,,0.00,TxWx,2013-05-21 11:06:00,
2013-05-21 07:11:00,72.0,65.0,30.15,South,180,5.0,10.0,78,0.00,,,0.00,TxWx,2013-05-21 11:11:00,
2013-05-21 07:17:00,72.0,65.0,30.15,SW,225,6.0,6.0,78,0.00,,,0.00,TxWx,2013-05-21 11:17:00,
2013-05-21 07:22:00,72.0,65.0,30.15,SW,225,6.0,8.0,78,0.00,,,0.00,TxWx,2013-05-21 11:22:00,
2013-05-21 07:28:00,73.0,66.0,30.15,SW,225,3.0,10.0,78,0.00,,,0.00,TxWx,2013-05-21 11:28:00,
2013-05-21 07:33:00,73.0,66.0,30.15,SW,225,7.0,11.0,78,0.00,,,0.00,TxWx,2013-05-21 11:33:00,
2013-05-21 07:38:00,73.0,65.0,30.15,WSW,247,7.0,11.0,77,0.00,,,0.00,TxWx,2013-05-21 11:38:00,
2013-05-21 07:44:00,73.0,65.0,30.15,WSW,247,8.0,11.0,77,0.00,,,0.00,TxWx,2013-05-21 11:44:00,
2013-05-21 07:49:00,73.0,66.0,30.14,SW,225,5.0,10.0,78,0.00,,,0.00,TxWx,2013-05-21 11:49:00,
2013-05-21 07:55:00,73.0,66.0,30.14,SW,225,3.0,5.0,78,0.00,,,0.00,TxWx,2013-05-21 11:55:00,
2013-05-21 08:00:00,73.0,66.0,30.14,WSW,247,8.0,8.0,78,0.00,,,0.00,TxWx,2013-05-21 12:00:00,
2013-05-21 08:05:00,73.0,65.0,30.14,WSW,247,4.0,10.0,77,0.00,,,0.00,TxWx,2013-05-21 12:05:00,
2013-05-21 08:11:00,73.0,65.0,30.14,WSW,247,6.0,13.0,77,0.00,,,0.00,TxWx,2013-05-21 12:11:00,
2013-05-21 08:16:00,73.0,66.0,30.14,WSW,247,8.0,13.0,78,0.00,,,0.00,TxWx,2013-05-21 12:16:00,
2013-05-21 08:21:00,73.0,66.0,30.15,SW,225,6.0,11.0,78,0.00,,,0.00,TxWx,2013-05-21 12:21:00,
2013-05-21 08:26:00,73.0,66.0,30.15,SSW,202,5.0,8.0,78,0.00,,,0.00,TxWx,2013-05-21 12:26:00,
2013-05-21 08:32:00,73.0,66.0,30.15,WSW,247,8.0,10.0,79,0.00,,,0.00,TxWx,2013-05-21 12:32:00,
2013-05-21 08:37:00,73.0,66.0,30.15,SW,225,5.0,10.0,79,0.00,,,0.00,TxWx,2013-05-21 12:37:00,
2013-05-21 08:42:00,73.0,66.0,30.15,WSW,247,8.0,11.0,79,0.00,,,0.00,TxWx,2013-05-21 12:42:00,
2013-05-21 08:48:00,73.0,66.0,30.15,SW,225,6.0,7.0,79,0.00,,,0.00,TxWx,2013-05-21 12:48:00,
2013-05-21 08:54:00,74.0,67.0,30.15,WSW,247,11.0,11.0,78,0.00,,,0.00,TxWx,2013-05-21 12:54:00,
2013-05-21 08:59:00,74.0,66.0,30.15,West,270,5.0,9.0,78,0.00,,,0.00,TxWx,2013-05-21 12:59:00,
2013-05-21 09:04:00,75.0,67.0,30.15,SW,225,13.0,15.0,77,0.00,,,0.00,TxWx,2013-05-21 13:04:00,
2013-05-21 09:09:00,75.0,67.0,30.15,SW,225,6.0,12.0,77,0.00,,,0.00,TxWx,2013-05-21 13:09:00,
2013-05-21 09:15:00,74.0,66.0,30.14,SW,225,7.0,11.0,77,0.00,,,0.00,TxWx,2013-05-21 13:15:00,
2013-05-21 09:21:00,75.0,67.0,30.14,WSW,247,8.0,8.0,77,0.00,,,0.00,TxWx,2013-05-21 13:21:00,
2013-05-21 09:26:00,75.0,67.0,30.14,SSW,202,6.0,11.0,77,0.00,,,0.00,TxWx,2013-05-21 13:26:00,
2013-05-21 09:32:00,75.0,67.0,30.14,SW,225,8.0,13.0,76,0.00,,,0.00,TxWx,2013-05-21 13:32:00,
2013-05-21 09:37:00,76.0,67.0,30.13,SW,225,10.0,12.0,75,0.00,,,0.00,TxWx,2013-05-21 13:37:00,
2013-05-21 09:42:00,76.0,67.0,30.13,SW,225,5.0,7.0,75,0.00,,,0.00,TxWx,2013-05-21 13:42:00,
2013-05-21 09:48:00,76.0,67.0,30.13,South,180,6.0,11.0,74,0.00,,,0.00,TxWx,2013-05-21 13:48:00,
2013-05-21 09:53:00,77.0,68.0,30.13,SSW,202,9.0,12.0,73,0.00,,,0.00,TxWx,2013-05-21 13:53:00,
2013-05-21 09:58:00,77.0,68.0,30.13,SSW,202,4.0,7.0,73,0.00,,,0.00,TxWx,2013-05-21 13:58:00,
2013-05-21 10:04:00,78.0,68.0,30.12,South,180,7.0,12.0,71,0.00,,,0.00,TxWx,2013-05-21 14:04:00,
2013-05-21 10:09:00,78.0,68.0,30.13,SW,225,8.0,13.0,72,0.00,,,0.00,TxWx,2013-05-21 14:09:00,
2013-05-21 10:14:00,78.0,68.0,30.12,West,270,6.0,8.0,72,0.00,,,0.00,TxWx,2013-05-21 14:14:00,
2013-05-21 10:20:00,78.0,68.0,30.13,SW,225,7.0,11.0,72,0.00,,,0.00,TxWx,2013-05-21 14:20:00,
2013-05-21 10:25:00,79.0,68.0,30.12,SW,225,6.0,10.0,70,0.00,,,0.00,TxWx,2013-05-21 14:25:00,
2013-05-21 10:31:00,78.0,67.0,30.12,WSW,247,8.0,14.0,69,0.00,,,0.00,TxWx,2013-05-21 14:31:00,
2013-05-21 10:36:00,78.0,67.0,30.12,SSW,202,9.0,11.0,70,0.00,,,0.00,TxWx,2013-05-21 14:36:00,
2013-05-21 10:42:00,78.0,67.0,30.13,WSW,247,10.0,11.0,70,0.00,,,0.00,TxWx,2013-05-21 14:42:00,
2013-05-21 10:48:00,78.0,67.0,30.13,WSW,247,4.0,10.0,70,0.00,,,0.00,TxWx,2013-05-21 14:48:00,
2013-05-21 10:53:00,78.0,67.0,30.13,WSW,247,13.0,17.0,69,0.00,,,0.00,TxWx,2013-05-21 14:53:00,
2013-05-21 10:59:00,79.0,68.0,30.13,SSW,202,9.0,9.0,70,0.00,,,0.00,TxWx,2013-05-21 14:59:00,
2013-05-21 11:04:00,79.0,68.0,30.13,WSW,247,8.0,11.0,69,0.00,,,0.00,TxWx,2013-05-21 15:04:00,
2013-05-21 11:09:00,79.0,68.0,30.12,SW,225,5.0,11.0,69,0.00,,,0.00,TxWx,2013-05-21 15:09:00,
2013-05-21 11:15:00,79.0,68.0,30.12,WSW,247,5.0,10.0,69,0.00,,,0.00,TxWx,2013-05-21 15:15:00,
2013-05-21 11:20:00,80.0,68.0,30.12,West,270,11.0,11.0,67,0.00,,,0.00,TxWx,2013-05-21 15:20:00,
2013-05-21 11:25:00,80.0,67.0,30.12,SW,225,6.0,12.0,66,0.00,,,0.00,TxWx,2013-05-21 15:25:00,
2013-05-21 11:30:00,80.0,67.0,30.12,SSW,202,10.0,11.0,65,0.00,,,0.00,TxWx,2013-05-21 15:30:00,
2013-05-21 11:36:00,80.0,67.0,30.12,SW,225,10.0,11.0,65,0.00,,,0.00,TxWx,2013-05-21 15:36:00,
2013-05-21 11:41:00,80.0,67.0,30.11,West,270,6.0,9.0,65,0.00,,,0.00,TxWx,2013-05-21 15:41:00,
2013-05-21 11:46:00,80.0,66.0,30.11,SW,225,9.0,12.0,64,0.00,,,0.00,TxWx,2013-05-21 15:46:00,
2013-05-21 11:52:00,81.0,67.0,30.11,SSW,202,9.0,11.0,64,0.00,,,0.00,TxWx,2013-05-21 15:52:00,
2013-05-21 11:57:00,80.0,66.0,30.11,WSW,247,8.0,11.0,63,0.00,,,0.00,TxWx,2013-05-21 15:57:00,
2013-05-21 12:02:00,81.0,67.0,30.11,SW,225,13.0,14.0,63,0.00,,,0.00,TxWx,2013-05-21 16:02:00,
2013-05-21 12:08:00,81.0,67.0,30.11,South,180,8.0,10.0,63,0.00,,,0.00,TxWx,2013-05-21 16:08:00,
2013-05-21 12:13:00,80.0,67.0,30.11,SW,225,6.0,12.0,64,0.00,,,0.00,TxWx,2013-05-21 16:13:00,
2013-05-21 12:19:00,81.0,68.0,30.11,SW,225,9.0,13.0,64,0.00,,,0.00,TxWx,2013-05-21 16:19:00,
2013-05-21 12:24:00,80.0,67.0,30.10,SSW,202,5.0,12.0,65,0.00,,,0.00,TxWx,2013-05-21 16:24:00,
2013-05-21 12:30:00,80.0,67.0,30.10,SW,225,8.0,13.0,64,0.00,,,0.00,TxWx,2013-05-21 16:30:00,
2013-05-21 12:35:00,81.0,67.0,30.10,SSW,202,7.0,12.0,64,0.00,,,0.00,TxWx,2013-05-21 16:35:00,
2013-05-21 12:41:00,81.0,67.0,30.10,SSW,202,6.0,11.0,63,0.00,,,0.00,TxWx,2013-05-21 16:41:00,
2013-05-21 12:46:00,81.0,67.0,30.10,SE,135,3.0,13.0,63,0.00,,,0.00,TxWx,2013-05-21 16:46:00,
2013-05-21 12:51:00,81.0,66.0,30.10,SSW,202,10.0,11.0,61,0.00,,,0.00,TxWx,2013-05-21 16:51:00,
2013-05-21 12:56:00,81.0,66.0,30.09,South,180,9.0,11.0,61,0.00,,,0.00,TxWx,2013-05-21 16:56:00,
2013-05-21 13:02:00,82.0,67.0,30.09,South,180,5.0,8.0,62,0.00,,,0.00,TxWx,2013-05-21 17:02:00,
2013-05-21 13:07:00,82.0,66.0,30.08,WNW,292,3.0,11.0,59,0.00,,,0.00,TxWx,2013-05-21 17:07:00,
2013-05-21 13:13:00,82.0,65.0,30.08,SE,135,9.0,10.0,58,0.00,,,0.00,TxWx,2013-05-21 17:13:00,
2013-05-21 13:18:00,83.0,66.0,30.07,SSE,157,7.0,10.0,57,0.00,,,0.00,TxWx,2013-05-21 17:18:00,
2013-05-21 13:23:00,82.0,65.0,30.07,SSW,202,10.0,14.0,56,0.00,,,0.00,TxWx,2013-05-21 17:23:00,
2013-05-21 13:29:00,83.0,66.0,30.07,WSW,247,8.0,8.0,56,0.00,,,0.00,TxWx,2013-05-21 17:29:00,
2013-05-21 13:34:00,83.0,65.0,30.07,SSW,202,7.0,14.0,55,0.00,,,0.00,TxWx,2013-05-21 17:34:00,
2013-05-21 13:40:00,83.0,65.0,30.06,SW,225,9.0,15.0,55,0.00,,,0.00,TxWx,2013-05-21 17:40:00,
2013-05-21 13:45:00,83.0,65.0,30.06,SW,225,8.0,11.0,55,0.00,,,0.00,TxWx,2013-05-21 17:45:00,
2013-05-21 13:51:00,82.0,66.0,30.06,SW,225,5.0,14.0,56,0.00,,,0.00,TxWx,2013-05-21 17:51:00,
2013-05-21 13:56:00,82.0,65.0,30.05,WSW,247,8.0,11.0,57,0.00,,,0.00,TxWx,2013-05-21 17:56:00,
2013-05-21 14:01:00,82.0,65.0,30.06,SW,225,10.0,11.0,58,0.00,,,0.00,TxWx,2013-05-21 18:01:00,
2013-05-21 14:07:00,83.0,67.0,30.06,SSW,202,8.0,11.0,58,0.00,,,0.00,TxWx,2013-05-21 18:07:00,
2013-05-21 14:12:00,82.0,65.0,30.05,SW,225,10.0,13.0,57,0.00,,,0.00,TxWx,2013-05-21 18:12:00,
2013-05-21 14:18:00,83.0,67.0,30.05,SW,225,7.0,10.0,58,0.00,,,0.00,TxWx,2013-05-21 18:18:00,
2013-05-21 14:23:00,84.0,67.0,30.05,WSW,247,13.0,14.0,57,0.00,,,0.00,TxWx,2013-05-21 18:23:00,
2013-05-21 14:28:00,83.0,66.0,30.06,WSW,247,10.0,14.0,57,0.00,,,0.00,TxWx,2013-05-21 18:28:00,
2013-05-21 14:34:00,84.0,66.0,30.06,WSW,247,6.0,12.0,56,0.00,,,0.00,TxWx,2013-05-21 18:34:00,
2013-05-21 14:39:00,84.0,66.0,30.06,West,270,10.0,11.0,55,0.00,,,0.00,TxWx,2013-05-21 18:39:00,
2013-05-21 14:44:00,84.0,65.0,30.06,SW,225,10.0,16.0,53,0.00,,,0.00,TxWx,2013-05-21 18:44:00,
2013-05-21 14:50:00,85.0,66.0,30.05,WSW,247,10.0,11.0,53,0.00,,,0.00,TxWx,2013-05-21 18:50:00,
2013-05-21 14:55:00,85.0,66.0,30.05,West,270,6.0,11.0,53,0.00,,,0.00,TxWx,2013-05-21 18:55:00,
2013-05-21 15:00:00,85.0,65.0,30.05,West,270,8.0,19.0,52,0.00,,,0.00,TxWx,2013-05-21 19:00:00,
2013-05-21 15:06:00,85.0,65.0,30.05,SW,225,11.0,17.0,51,0.00,,,0.00,TxWx,2013-05-21 19:06:00,
2013-05-21 15:11:00,85.0,65.0,30.05,WSW,247,5.0,13.0,52,0.00,,,0.00,TxWx,2013-05-21 19:11:00,
2013-05-21 15:16:00,85.0,65.0,30.05,SW,225,12.0,13.0,52,0.00,,,0.00,TxWx,2013-05-21 19:16:00,
2013-05-21 15:21:00,84.0,64.0,30.05,SW,225,8.0,13.0,52,0.00,,,0.00,TxWx,2013-05-21 19:21:00,
2013-05-21 15:27:00,85.0,66.0,30.05,WSW,247,6.0,10.0,53,0.00,,,0.00,TxWx,2013-05-21 19:27:00,
2013-05-21 15:33:00,85.0,65.0,30.05,WSW,247,8.0,15.0,52,0.00,,,0.00,TxWx,2013-05-21 19:33:00,
2013-05-21 15:38:00,85.0,66.0,30.04,WSW,247,6.0,17.0,53,0.00,,,0.00,TxWx,2013-05-21 19:38:00,
2013-05-21 15:43:00,85.0,66.0,30.04,SW,225,8.0,14.0,53,0.00,,,0.00,TxWx,2013-05-21 19:43:00,
2013-05-21 15:48:00,85.0,66.0,30.04,West,270,7.0,14.0,53,0.00,,,0.00,TxWx,2013-05-21 19:48:00,
2013-05-21 15:53:00,85.0,66.0,30.04,SSW,202,8.0,11.0,53,0.00,,,0.00,TxWx,2013-05-21 19:53:00,
2013-05-21 15:59:00,86.0,67.0,30.04,WNW,292,3.0,11.0,54,0.00,,,0.00,TxWx,2013-05-21 19:59:00,
2013-05-21 16:04:00,85.0,66.0,30.03,West,270,13.0,14.0,53,0.00,,,0.00,TxWx,2013-05-21 20:04:00,
2013-05-21 16:09:00,85.0,66.0,30.03,SW,225,14.0,18.0,54,0.00,,,0.00,TxWx,2013-05-21 20:09:00,
2013-05-21 16:14:00,84.0,66.0,30.03,WSW,247,13.0,15.0,55,0.00,,,0.00,TxWx,2013-05-21 20:14:00,
2013-05-21 16:20:00,84.0,66.0,30.02,West,270,5.0,11.0,56,0.00,,,0.00,TxWx,2013-05-21 20:20:00,
2013-05-21 16:26:00,85.0,67.0,30.02,WSW,247,14.0,19.0,55,0.00,,,0.00,TxWx,2013-05-21 20:26:00,
2013-05-21 16:31:00,84.0,65.0,30.02,WSW,247,11.0,15.0,54,0.00,,,0.00,TxWx,2013-05-21 20:31:00,
2013-05-21 16:37:00,83.0,65.0,30.01,WSW,247,9.0,13.0,55,0.00,,,0.00,TxWx,2013-05-21 20:37:00,
2013-05-21 16:42:00,84.0,66.0,30.02,West,270,12.0,12.0,55,0.00,,,0.00,TxWx,2013-05-21 20:42:00,
2013-05-21 16:47:00,84.0,65.0,30.02,West,270,11.0,14.0,54,0.00,,,0.00,TxWx,2013-05-21 20:47:00,
2013-05-21 16:53:00,84.0,65.0,30.02,West,270,7.0,14.0,54,0.00,,,0.00,TxWx,2013-05-21 20:53:00,
2013-05-21 16:58:00,83.0,64.0,30.02,WSW,247,9.0,15.0,54,0.00,,,0.00,TxWx,2013-05-21 20:58:00,
2013-05-21 17:04:00,83.0,65.0,30.02,WSW,247,9.0,13.0,54,0.00,,,0.00,TxWx,2013-05-21 21:04:00,
2013-05-21 17:09:00,83.0,64.0,30.02,WSW,247,7.0,17.0,54,0.00,,,0.00,TxWx,2013-05-21 21:09:00,
2013-05-21 17:15:00,84.0,65.0,30.03,SW,225,11.0,11.0,53,0.00,,,0.00,TxWx,2013-05-21 21:15:00,
2013-05-21 17:20:00,84.0,64.0,30.03,WSW,247,10.0,13.0,52,0.00,,,0.00,TxWx,2013-05-21 21:20:00,
2013-05-21 17:26:00,84.0,63.0,30.03,West,270,8.0,13.0,50,0.00,,,0.00,TxWx,2013-05-21 21:26:00,
2013-05-21 17:31:00,83.0,62.0,30.03,SSW,202,5.0,11.0,49,0.00,,,0.00,TxWx,2013-05-21 21:31:00,
2013-05-21 17:36:00,84.0,63.0,30.03,SW,225,2.0,8.0,50,0.00,,,0.00,TxWx,2013-05-21 21:36:00,
2013-05-21 17:41:00,83.0,62.0,30.03,West,270,11.0,11.0,49,0.00,,,0.00,TxWx,2013-05-21 21:41:00,
2013-05-21 17:46:00,83.0,62.0,30.03,SW,225,6.0,10.0,50,0.00,,,0.00,TxWx,2013-05-21 21:46:00,
2013-05-21 17:52:00,82.0,61.0,30.03,WSW,247,6.0,14.0,50,0.00,,,0.00,TxWx,2013-05-21 21:52:00,
2013-05-21 17:58:00,82.0,62.0,30.02,SW,225,5.0,10.0,51,0.00,,,0.00,TxWx,2013-05-21 21:58:00,
2013-05-21 18:03:00,81.0,61.0,30.02,SW,225,3.0,6.0,52,0.00,,,0.00,TxWx,2013-05-21 22:03:00,
2013-05-21 18:09:00,81.0,61.0,30.02,SW,225,6.0,6.0,52,0.00,,,0.00,TxWx,2013-05-21 22:09:00,
2013-05-21 18:14:00,81.0,61.0,30.02,South,180,5.0,8.0,52,0.00,,,0.00,TxWx,2013-05-21 22:14:00,
2013-05-21 18:19:00,80.0,62.0,30.02,SW,225,4.0,6.0,54,0.00,,,0.00,TxWx,2013-05-21 22:19:00,
2013-05-21 18:25:00,80.0,61.0,30.02,WSW,247,4.0,6.0,53,0.00,,,0.00,TxWx,2013-05-21 22:25:00,
2013-05-21 18:30:00,80.0,61.0,30.02,South,180,3.0,5.0,53,0.00,,,0.00,TxWx,2013-05-21 22:30:00,
2013-05-21 18:36:00,80.0,62.0,30.02,SW,225,4.0,5.0,54,0.00,,,0.00,TxWx,2013-05-21 22:36:00,
2013-05-21 18:41:00,79.0,61.0,30.02,SSW,202,4.0,6.0,54,0.00,,,0.00,TxWx,2013-05-21 22:41:00,
2013-05-21 18:46:00,79.0,62.0,30.02,South,180,3.0,5.0,56,0.00,,,0.00,TxWx,2013-05-21 22:46:00,
2013-05-21 18:52:00,79.0,62.0,30.01,SW,225,3.0,4.0,56,0.00,,,0.00,TxWx,2013-05-21 22:52:00,
2013-05-21 18:57:00,77.0,61.0,30.01,SSW,202,3.0,7.0,57,0.00,,,0.00,TxWx,2013-05-21 22:57:00,
2013-05-21 19:02:00,76.0,60.0,30.02,ESE,112,5.0,7.0,59,0.00,,,0.00,TxWx,2013-05-21 23:02:00,
2013-05-21 19:07:00,75.0,60.0,30.02,SW,225,3.0,5.0,61,0.00,,,0.00,TxWx,2013-05-21 23:07:00,
2013-05-21 19:13:00,74.0,59.0,30.02,SSW,202,5.0,10.0,61,0.00,,,0.00,TxWx,2013-05-21 23:13:00,
2013-05-21 19:19:00,74.0,60.0,30.02,South,180,5.0,11.0,61,0.00,,,0.00,TxWx,2013-05-21 23:19:00,
2013-05-21 19:24:00,74.0,60.0,30.02,SW,225,3.0,8.0,62,0.00,,,0.00,TxWx,2013-05-21 23:24:00,
2013-05-21 19:30:00,73.0,59.0,30.04,WSW,247,8.0,14.0,61,0.00,,,0.00,TxWx,2013-05-21 23:30:00,
2013-05-21 19:35:00,72.0,58.0,30.05,WSW,247,9.0,12.0,62,0.00,,,0.00,TxWx,2013-05-21 23:35:00,
2013-05-21 19:40:00,72.0,58.0,30.04,WSW,247,5.0,8.0,63,0.00,,,0.00,TxWx,2013-05-21 23:40:00,
2013-05-21 19:46:00,71.0,58.0,30.03,WSW,247,4.0,5.0,63,0.00,,,0.00,TxWx,2013-05-21 23:46:00,
2013-05-21 19:51:00,72.0,58.0,30.04,SW,225,6.0,8.0,62,0.00,,,0.00,TxWx,2013-05-21 23:51:00,
2013-05-21 19:56:00,72.0,58.0,30.04,WSW,247,4.0,5.0,62,0.00,,,0.00,TxWx,2013-05-21 23:56:00,
2013-05-21 20:02:00,72.0,58.0,30.05,WSW,247,3.0,6.0,62,0.00,,,0.00,TxWx,2013-05-22 00:02:00,
2013-05-21 20:07:00,73.0,59.0,30.06,West,270,5.0,6.0,62,0.00,,,0.00,TxWx,2013-05-22 00:07:00,
2013-05-21 20:13:00,72.0,58.0,30.05,WSW,247,3.0,10.0,62,0.00,,,0.00,TxWx,2013-05-22 00:13:00,
2013-05-21 20:18:00,72.0,58.0,30.06,WNW,292,2.0,3.0,63,0.00,,,0.00,TxWx,2013-05-22 00:18:00,
2013-05-21 20:23:00,72.0,59.0,30.06,WSW,247,2.0,3.0,63,0.00,,,0.00,TxWx,2013-05-22 00:23:00,
2013-05-21 20:29:00,72.0,59.0,30.06,SE,135,3.0,3.0,64,0.00,,,0.00,TxWx,2013-05-22 00:29:00,
2013-05-21 20:34:00,72.0,59.0,30.06,South,180,3.0,4.0,64,0.00,,,0.00,TxWx,2013-05-22 00:34:00,
2013-05-21 20:39:00,72.0,59.0,30.06,WSW,247,5.0,5.0,63,0.00,,,0.00,TxWx,2013-05-22 00:39:00,
2013-05-21 20:44:00,72.0,59.0,30.05,West,270,3.0,5.0,64,0.00,,,0.00,TxWx,2013-05-22 00:44:00,
2013-05-21 20:49:00,72.0,59.0,30.05,SW,225,3.0,5.0,64,0.00,,,0.00,TxWx,2013-05-22 00:49:00,
2013-05-21 20:55:00,72.0,59.0,30.05,WSW,247,3.0,3.0,64,0.00,,,0.00,TxWx,2013-05-22 00:55:00,
2013-05-21 21:00:00,72.0,59.0,30.05,WNW,292,1.0,2.0,65,0.00,,,0.00,TxWx,2013-05-22 01:00:00,
2013-05-21 21:05:00,71.0,59.0,30.05,West,270,3.0,3.0,65,0.00,,,0.00,TxWx,2013-05-22 01:05:00,
2013-05-21 21:11:00,71.0,59.0,30.05,WSW,247,3.0,4.0,66,0.00,,,0.00,TxWx,2013-05-22 01:11:00,
2013-05-21 21:16:00,71.0,59.0,30.05,SW,225,5.0,5.0,66,0.00,,,0.00,TxWx,2013-05-22 01:16:00,
2013-05-21 21:21:00,71.0,59.0,30.05,WSW,247,4.0,5.0,67,0.00,,,0.00,TxWx,2013-05-22 01:21:00,
2013-05-21 21:27:00,71.0,59.0,30.05,SSW,202,3.0,5.0,67,0.00,,,0.00,TxWx,2013-05-22 01:27:00,
2013-05-21 21:32:00,71.0,60.0,30.05,West,270,2.0,3.0,68,0.00,,,0.00,TxWx,2013-05-22 01:32:00,
2013-05-21 21:37:00,71.0,60.0,30.05,NW,315,1.0,1.0,68,0.00,,,0.00,TxWx,2013-05-22 01:37:00,
2013-05-21 21:43:00,70.0,59.0,30.05,NW,315,1.0,2.0,69,0.00,,,0.00,TxWx,2013-05-22 01:43:00,
2013-05-21 21:48:00,70.0,59.0,30.05,West,270,1.0,2.0,69,0.00,,,0.00,TxWx,2013-05-22 01:48:00,
2013-05-21 21:53:00,70.0,59.0,30.05,SW,225,1.0,2.0,69,0.00,,,0.00,TxWx,2013-05-22 01:53:00,
2013-05-21 21:59:00,70.0,59.0,30.05,SSW,202,1.0,2.0,69,0.00,,,0.00,TxWx,2013-05-22 01:59:00,
2013-05-21 22:04:00,70.0,59.0,30.05,WSW,247,0.0,1.0,69,0.00,,,0.00,TxWx,2013-05-22 02:04:00,
2013-05-21 22:10:00,70.0,59.0,30.05,NW,315,1.0,2.0,69,0.00,,,0.00,TxWx,2013-05-22 02:10:00,
2013-05-21 22:16:00,70.0,60.0,30.05,SSW,202,2.0,3.0,70,0.00,,,0.00,TxWx,2013-05-22 02:16:00,
2013-05-21 22:21:00,70.0,60.0,30.05,West,270,0.0,0.0,70,0.00,,,0.00,TxWx,2013-05-22 02:21:00,
2013-05-21 22:26:00,69.0,59.0,30.05,South,180,2.0,2.0,71,0.00,,,0.00,TxWx,2013-05-22 02:26:00,
2013-05-21 22:31:00,69.0,59.0,30.05,SSE,157,2.0,2.0,71,0.00,,,0.00,TxWx,2013-05-22 02:31:00,
2013-05-21 22:37:00,69.0,59.0,30.05,SSW,202,3.0,3.0,71,0.00,,,0.00,TxWx,2013-05-22 02:37:00,
2013-05-21 22:42:00,69.0,59.0,30.05,South,180,3.0,4.0,72,0.00,,,0.00,TxWx,2013-05-22 02:42:00,
2013-05-21 22:47:00,69.0,59.0,30.05,SE,135,1.0,4.0,72,0.00,,,0.00,TxWx,2013-05-22 02:47:00,
2013-05-21 22:53:00,70.0,60.0,30.05,SW,225,2.0,3.0,72,0.00,,,0.00,TxWx,2013-05-22 02:53:00,
2013-05-21 22:58:00,70.0,60.0,30.05,SW,225,4.0,5.0,72,0.00,,,0.00,TxWx,2013-05-22 02:58:00,
2013-05-21 23:03:00,70.0,60.0,30.06,SW,225,3.0,5.0,72,0.00,,,0.00,TxWx,2013-05-22 03:03:00,
2013-05-21 23:09:00,70.0,60.0,30.05,SW,225,4.0,8.0,70,0.00,,,0.00,TxWx,2013-05-22 03:09:00,
2013-05-21 23:14:00,70.0,59.0,30.05,WSW,247,3.0,8.0,69,0.00,,,0.00,TxWx,2013-05-22 03:14:00,
2013-05-21 23:19:00,70.0,59.0,30.05,SW,225,3.0,5.0,68,0.00,,,0.00,TxWx,2013-05-22 03:19:00,
2013-05-21 23:24:00,69.0,58.0,30.05,WSW,247,3.0,5.0,68,0.00,,,0.00,TxWx,2013-05-22 03:24:00,
2013-05-21 23:31:00,69.0,58.0,30.04,WSW,247,3.0,5.0,68,0.00,,,0.00,TxWx,2013-05-22 03:31:00,
2013-05-21 23:36:00,69.0,58.0,30.04,WSW,247,2.0,3.0,69,0.00,,,0.00,TxWx,2013-05-22 03:36:00,
2013-05-21 23:41:00,69.0,58.0,30.05,SW,225,1.0,3.0,69,0.00,,,0.00,TxWx,2013-05-22 03:41:00,
2013-05-21 23:46:00,69.0,59.0,30.04,South,180,1.0,3.0,70,0.00,,,0.00,TxWx,2013-05-22 03:46:00,
2013-05-21 23:52:00,69.0,59.0,30.04,SSW,202,3.0,3.0,70,0.00,,,0.00,TxWx,2013-05-22 03:52:00,
2013-05-21 23:57:00,68.0,58.0,30.04,SSW,202,3.0,3.0,71,0.00,,,0.00,TxWx,2013-05-22 03:57:00,